STARLINK-1735 (46565 NORAD) Tracking and Keplerian Element Data

This shows tracking and keplerian element data for the satellite.

Feedback or suggestion? Click here.




ElementValue
Catalog46565
NameSTARLINK-1735
Epoch Orbit177
Epoch Day304.91667824
Epoch Year2020
RAAN321.8897
Inclination53.0019
Eccentricity0.0001298
Argument of Perigee69.8117
Mean Anonmoly207.9539
Mean Motion15.62697986
Decay Rate0.00080611
L11 46565U 20070AK 20304.91667824 .00080611 00000-0 87935-3 0 9998
L22 46565 53.0019 321.8897 0001298 69.8117 207.9539 15.62697986 1775

Live tracking and technical data element details for STARLINK-1735 (NORAD 46565). STARLINK-1735 can be tracked NOW for your location showing map with azimuth and elevation plus other details from your city location.

Track the satellite on the map from your city or location and see movement details for azimuth, elevation, latitude, longitude, range, height, and movement on the map or in text.







IsCatalogInMostPopularTable: catalog: 46565, numindb: 3
Update: records affected: 1



GetName: 46565 STARLINK-1735

Hit Count: updated at: Sat, 31 Oct 2020 11:16:47 GMT